RH
80 88 84 83 87 87 94 88 88 79 74 75 82 76 74 71 78 79 80 78 78 89 81 73 78 77 79 79 79 79 84 76 82 80 81 81 83 81 83 83 84 79 86
77 89 86 84 83 80 89 87 88 82 76 77 85 77 73 76 77 79 77 80 78 76 73 75 76 77 84 82 80 81 81 78 84 79 86 80 82 83 82 80 83 84 76
75 89 86 89 77 69 85 86 91 85 83 84 88 85 80 80 78 76 72 77 80 76 75 75 79 78 78 76 80 81 80 79 83 87 87 77 84 79 84 80 82 86 79
84 89 85 86 71 66 87 85 90 95 91 90 94 96 88 84 79 75 71 62 70 75 80 80 77 75 75 80 78 79 81 80 83 86 84 82 86 81 84 82 80 82 83
82 84 85 85 58 70 86 83 76 90 95 98 96 96 93 83 80 76 75 71 71 72 80 83 81 78 75 84 77 80 80 83 83 82 85 83 82 82 80 84 82 83 84
85 86 82 83 54 71 80 65 71 92 89 96 97 97 94 85 80 77 77 77 78 76 71 75 82 82 82 82 82 76 77 82 83 86 81 86 80 79 85 82 82 85 82
90 88 80 77 61 71 63 57 83 88 95 91 88 94 92 89 84 78 77 76 71 68 68 56 77 86 84 85 84 84 77 77 82 86 80 80 82 83 81 82 83 86 81
92 88 80 76 64 62 62 60 79 94 92 83 84 75 83 80 86 85 80 77 72 62 56 53 50 50 80 82 82 87 86 80 79 85 80 81 82 82 80 82 82 86 84
84 85 78 74 67 57 62 68 83 84 89 85 75 70 88 92 85 78 79 78 74 70 70 71 70 65 52 52 71 77 86 81 82 85 86 82 84 81 80 82 80 80 83
77 78 66 66 67 62 60 72 78 79 83 81 73 62 62 72 91 94 85 83 79 75 76 77 76 73 70 60 44 57 86 82 81 81 82 83 82 77 82 78 87 87 86
70 73 68 66 71 66 60 65 76 76 76 77 74 72 64 73 71 85 95 88 88 83 79 78 76 74 73 68 57 48 85 84 82 84 81 82 83 76 83 81 81 87 88
68 70 68 66 62 65 59 58 70 74 74 76 75 67 56 64 70 72 90 90 89 86 83 82 81 76 74 73 63 51 66 85 82 83 83 81 83 79 86 84 87 88 90
69 65 64 63 58 57 57 57 61 69 70 72 73 70 59 49 50 56 66 84 86 78 85 84 82 78 76 76 68 60 53 84 81 81 85 85 84 81 80 82 86 89 89
63 61 60 58 58 58 58 59 60 61 64 64 65 67 60 55 54 47 49 68 88 84 81 74 76 80 80 78 72 66 58 59 82 85 88 87 92 87 83 86 93 90 90
60 58 56 57 58 60 60 59 62 61 61 61 60 60 59 58 56 56 53 47 47 88 89 70 69 70 80 80 78 74 64 55 69 88 87 89 83 88 88 93 90 93 90
57 57 59 59 59 58 58 60 62 63 63 64 63 61 61 60 58 58 59 56 50 45 67 51 66 66 74 82 80 78 74 68 63 85 88 83 69 70 90 91 86 92 90
57 56 55 58 59 58 58 60 63 63 64 67 67 64 62 62 61 62 64 60 56 53 54 52 54 72 69 77 82 82 80 77 69 83 90 87 71 59 82 88 85 93 90
60 57 55 55 56 57 57 58 62 64 65 66 65 67 65 66 66 65 65 66 65 59 56 57 58 66 76 78 82 83 83 82 74 79 84 81 71 57 62 95 86 91 89
80 67 65 65 65 61 57 55 55 57 60 61 62 64 64 68 68 67 67 67 67 66 63 62 61 67 77 80 88 91 88 85 82 77 78 73 70 72 56 97 90 89 80
93 88 83 82 73 69 64 60 61 60 59 58 59 57 58 62 63 65 68 66 65 68 67 67 67 70 76 81 88 92 96 92 88 85 84 77 78 85 79 92 95 79 70
96 99 100 96 88 84 77 74 71 67 66 62 67 68 66 63 58 58 60 62 65 70 73 75 74 78 79 81 88 90 95 91 92 90 88 85 75 74 78 86 99 79 59
100 98 97 98 97 96 92 90 83 87 88 90 87 81 81 76 71 71 69 68 63 64 72 77 77 77 76 73 74 84 91 95 98 90 91 88 77 73 61 90 94 83 59
100 100 97 98 100 99 90 94 97 96 96 92 89 90 91 90 86 82 80 78 74 70 67 65 75 75 74 70 68 79 85 86 83 77 88 92 84 74 60 75 100 91 75
100 99 99 99 98 97 94 97 97 96 99 100 100 98 95 92 92 91 93 96 94 85 80 86 88 88 82 82 77 68 64 84 85 77 76 85 80 76 62 60 96 95 84
100 99 100 100 100 99 100 100 100 100 100 98 94 93 94 98 99 98 100 100 100 98 92 93 97 96 96 93 89 85 86 86 80 69 72 71 70 74 71 57 58 92 92
100 100 100 100 100 100 100 100 100 100 100 98 98 97 100 100 99 100 100 100 100 99 99 100 100 100 100 100 100 99 89 86 83 85 77 84 60 49 57 54 52 39 38
Wind_Speed
32 31 29 28 26 26 24 24 21 24 27 27 25 24 22 20 23 21 18 15 16 13 16 13 14 13 12 13 13 13 13 13 13 14 14 15 16 16 17 16 16 14 16
33 34 31 29 27 29 27 23 21 24 28 28 26 24 24 24 25 22 20 18 17 15 13 12 12 11 11 13 12 12 12 11 12 13 13 13 14 15 16 16 15 13 15
35 35 34 30 29 31 31 24 23 23 30 30 28 26 26 26 25 22 19 18 17 16 13 12 11 10 9 9 9 10 11 10 10 11 12 12 12 14 14 14 15 13 12
35 36 34 33 30 34 35 28 25 27 29 30 28 25 28 27 24 21 17 15 15 15 13 11 10 9 8 8 9 9 9 9 9 10 11 10 11 12 13 13 14 13 11
36 36 35 34 33 37 35 29 26 28 29 29 27 25 27 25 22 20 17 14 11 10 15 13 11 9 7 6 7 7 7 7 8 9 9 9 9 10 11 12 12 13 12
36 37 36 34 36 38 34 28 29 29 30 29 25 24 24 23 19 16 16 13 10 9 13 13 13 12 9 7 6 6 6 6 6 8 9 8 7 9 10 11 11 11 12
36 39 36 37 39 40 35 32 33 33 31 28 26 20 16 14 15 16 14 12 10 9 11 11 13 11 11 9 6 5 5 4 6 6 6 6 7 8 9 10 10 10 10
40 40 38 41 43 39 34 35 38 30 27 32 18 12 3 3 10 13 13 13 11 11 11 12 11 10 11 10 8 7 4 4 3 5 6 7 6 7 7 8 9 10 10
40 41 39 44 44 41 39 40 41 38 27 31 30 9 2 4 4 9 16 15 15 14 13 12 10 9 8 9 9 8 5 6 4 4 5 5 5 6 7 8 9 10 10
45 42 43 46 46 43 42 43 43 38 33 30 31 13 7 13 3 2 13 19 18 18 16 15 13 11 8 7 7 10 9 6 5 4 3 3 4 5 6 7 8 9 10
42 46 46 46 46 45 42 43 45 42 40 34 30 14 11 8 8 4 3 8 20 22 20 18 16 14 12 9 8 8 11 7 6 4 4 4 4 5 6 6 7 7 8
40 46 46 45 46 45 44 44 46 44 39 35 35 29 16 7 7 5 3 3 12 17 22 20 20 18 15 12 10 9 12 12 8 5 5 6 5 5 6 6 6 6 6
35 42 47 46 47 46 45 44 44 45 42 43 41 34 25 17 7 9 6 4 3 9 18 23 22 21 18 15 13 11 12 14 11 8 6 6 6 7 7 6 6 6 7
35 40 43 43 42 43 44 43 43 43 43 40 41 40 32 23 12 13 8 9 2 3 9 9 25 26 24 20 16 14 14 15 14 12 9 8 8 9 9 8 8 8 7
30 36 40 40 41 40 40 41 41 42 42 41 40 39 37 33 23 16 14 12 7 4 5 14 12 26 27 25 21 18 16 16 17 18 15 15 12 15 12 12 10 9 9
32 32 35 37 38 37 38 38 39 38 39 40 40 37 36 35 32 27 22 18 17 12 3 15 21 14 25 28 24 21 18 17 19 21 20 17 14 15 17 15 13 11 11
31 31 32 34 34 36 36 37 37 37 37 37 36 37 36 36 32 30 26 22 22 20 13 9 15 20 18 27 27 25 21 20 20 22 21 19 16 15 19 17 15 13 13
29 30 31 33 35 34 34 35 36 36 35 36 35 34 36 34 32 30 30 31 28 25 22 15 14 19 20 23 27 27 25 22 22 21 21 19 18 17 19 18 17 16 15
28 27 25 29 32 35 35 34 34 34 34 34 34 33 34 32 32 32 32 29 28 28 26 22 15 15 22 21 26 28 27 24 22 21 20 20 19 19 18 18 18 17 18
29 30 27 23 26 29 30 29 30 30 31 32 32 32 34 34 33 33 32 33 31 28 28 26 20 17 20 23 25 29 28 27 24 23 21 20 19 19 18 21 21 20 20
26 27 29 26 20 21 23 24 26 28 30 31 31 32 33 34 33 31 31 32 33 31 28 26 20 17 18 17 28 28 28 29 27 26 24 23 21 22 21 22 23 22 20
31 28 25 24 26 26 23 26 29 30 26 29 30 27 27 29 27 27 29 30 31 32 30 25 23 19 27 28 27 29 28 19 10 28 28 28 26 26 25 26 27 23 22
26 27 27 28 29 28 24 24 28 26 28 31 28 27 32 29 26 26 29 29 31 31 31 32 26 31 25 34 30 30 33 31 24 19 31 26 28 29 27 28 28 25 23
23 24 26 28 30 30 29 29 27 26 31 29 26 25 28 26 26 24 29 32 36 34 33 32 33 33 32 31 28 32 33 28 19 16 22 16 26 32 29 29 29 27 25
19 20 21 22 23 23 22 24 22 24 27 24 25 24 25 27 26 23 23 28 31 35 36 35 37 36 33 27 23 25 24 23 10 12 24 15 13 23 30 31 31 30 27
14 16 16 15 15 17 14 14 18 22 25 27 27 26 26 25 24 22 23 26 25 26 27 29 30 32 31 30 27 26 27 27 15 11 22 22 17 16 8 25 33 34 33
Wind_Direction
182 179 178 174 175 174 178 170 166 165 166 165 164 166 158 152 139 137 134 127 126 121 117 112 110 106 108 105 101 96 90 85 81 76 71 66 65 63 61 59 58 63 55
188 182 182 179 176 175 174 170 168 172 172 169 168 163 158 147 145 143 139 132 125 125 120 120 119 114 110 107 103 100 92 88 83 77 76 70 66 66 63 61 58 67 72
192 188 183 184 179 175 170 169 166 170 168 169 167 163 158 153 151 149 147 141 131 130 120 121 121 119 116 113 108 100 95 89 83 81 75 68 66 65 64 63 60 62 80
195 191 188 186 182 176 170 171 170 168 170 169 167 160 161 157 156 155 154 149 142 139 135 133 131 124 121 123 106 101 93 88 83 79 76 71 69 67 63 63 62 61 80
196 196 194 188 182 179 174 175 179 175 175 172 166 162 164 161 162 160 162 161 162 154 157 148 147 144 134 129 119 106 102 88 86 82 82 74 71 70 64 65 63 62 66
199 199 195 192 187 182 178 182 183 180 176 170 163 163 168 166 171 170 169 170 173 171 174 175 170 164 153 134 131 115 109 96 88 86 87 83 76 73 68 65 64 64 64
206 201 198 192 191 181 185 182 183 182 176 173 158 144 151 175 180 175 180 178 183 184 183 186 180 176 168 144 146 136 139 107 98 97 100 90 86 80 76 69 68 63 68
212 205 200 198 194 186 188 184 185 177 177 176 164 137 147 149 190 193 198 195 198 192 187 181 186 193 199 193 180 172 144 150 105 115 114 108 97 90 78 77 82 76 72
218 208 204 201 196 191 188 187 186 180 172 177 171 151 134 206 148 213 210 204 206 201 197 195 195 193 199 208 210 191 165 154 140 129 126 116 100 91 83 84 86 85 81
213 208 205 201 198 195 192 188 188 181 178 179 177 182 178 146 163 185 216 211 212 212 209 208 208 208 213 217 212 198 180 177 175 165 146 133 120 101 101 92 89 84 81
205 207 203 200 201 198 197 191 189 187 188 184 185 178 167 165 154 139 179 196 220 218 217 220 222 220 223 225 224 208 187 180 191 180 181 165 142 128 120 100 94 83 81
195 204 204 204 205 200 200 196 194 193 191 192 193 202 181 166 181 158 126 167 203 218 217 220 221 223 224 229 226 222 208 193 202 193 187 165 162 146 138 131 114 107 100
185 198 203 204 205 205 205 203 200 198 200 201 204 206 210 204 193 181 136 131 178 211 215 223 226 227 227 227 227 226 216 207 198 198 196 180 169 166 163 155 141 128 111
192 199 199 204 205 206 206 205 205 207 208 210 213 214 215 216 216 208 179 154 111 201 218 213 224 225 226 226 226 225 221 217 213 204 194 191 187 173 170 165 156 146 134
193 200 202 204 207 208 208 209 208 211 213 215 219 223 224 227 226 225 225 217 176 176 231 229 215 224 225 226 225 224 221 218 215 216 210 208 216 196 181 190 190 160 150
200 203 206 208 210 211 211 213 213 215 217 220 223 225 228 234 234 238 239 234 233 228 215 224 224 225 221 226 225 226 227 225 221 220 224 227 227 210 205 209 201 177 170
207 207 210 212 213 213 213 213 217 219 220 224 225 229 234 237 238 237 234 233 231 234 231 251 233 229 225 221 222 222 226 227 224 224 228 230 233 223 214 212 202 186 180
210 210 211 214 216 217 217 216 218 221 224 227 230 231 236 238 238 241 241 239 238 236 239 242 238 225 223 222 224 223 223 224 225 226 230 233 235 230 215 211 206 196 189
221 215 214 217 217 218 218 218 221 224 228 231 234 235 239 238 239 240 239 242 242 241 238 240 236 229 224 222 218 220 222 223 225 228 229 233 232 225 216 214 216 205 203
216 220 217 219 221 219 220 222 225 227 231 236 240 242 242 242 243 244 243 243 242 237 235 232 230 224 224 224 219 216 215 220 221 221 222 229 224 221 216 210 220 215 214
221 222 213 209 214 220 222 222 226 231 238 241 243 246 249 248 249 247 246 245 241 234 228 220 218 208 210 206 209 214 217 220 220 220 219 223 222 221 216 211 218 223 218
213 215 217 217 213 219 219 220 220 223 238 246 243 246 252 251 250 255 253 252 251 235 222 216 214 218 221 223 217 213 207 201 217 224 221 220 219 224 223 214 224 228 222
207 207 214 219 221 220 229 235 227 230 238 244 252 258 257 253 251 251 251 248 249 249 245 239 218 225 223 232 222 214 215 208 216 216 211 216 219 226 227 222 225 232 231
204 205 210 219 224 236 239 241 235 238 246 250 252 254 256 260 259 260 261 254 241 237 235 240 245 244 244 244 238 239 233 216 215 211 201 201 221 227 230 227 226 230 232
207 211 217 217 221 232 238 239 235 234 239 249 252 255 260 264 266 266 254 242 243 240 250 252 249 248 242 238 229 218 207 189 193 194 202 212 215 225 233 231 227 227 231
204 208 211 221 235 238 245 250 242 236 239 244 252 255 256 256 265 263 253 243 241 245 246 250 243 240 238 232 233 227 221 192 192 194 210 200 206 199 214 235 232 227 226